Left ArrowRight Arrow

39.12711, -84.51439

Hourly Observations for June 22, 2024

Temp ( °F °C ) Dew Point ( °F °C ) Humidity (%) Winds ( mph kmh ) Pressure ( in mb ) Visibility ( mi km ) Precip ( " mm )
12:53 am 00:53 Hazy 74 23.3 68 20 82 82 Calm 30.10 1019 6 10 0.00 0.00
1:53 am 01:53 Clear with Mist and Fog 72 22.2 68 20 87 87 Calm 30.09 1019 6 10 0.00 0.00
2:53 am 02:53 Clear with Mist and Fog 71 21.7 68 20 90 90 Calm 30.09 1019 4 6 0.00 0.00
3:53 am 03:53 Clear with Mist and Fog 71 21.7 68 20 90 90 Calm 30.09 1019 4 6 0.00 0.00
4:53 am 04:53 Clear with Mist and Fog 71 21.7 68 20 90 90 Calm 30.09 1019 3 5 0.00 0.00
5:53 am 05:53 Partly Cloudy with Mist and Fog 70 21.1 69 20.6 97 97 Calm 30.10 1019 3 5 0.00 0.00
6:23 am 06:23 Sunny with Mist and Fog 70 21.1 69 20.6 97 97 Calm 30.11 1020 2 3 0.00 0.00
6:53 am 06:53 Mostly Cloudy with Mist and Fog 71 21.7 69 20.6 93 93 Calm 30.10 1019 3 5 0.00 0.00
7:53 am 07:53 Sunny with Mist and Fog 74 23.3 71 21.7 91 91 Calm 30.09 1019 4 6 0.00 0.00
8:53 am 08:53 Hazy 79 26.1 72 22.2 79 79 Calm 30.08 1019 4 6 0.00 0.00
9:53 am 09:53 Hazy 84 28.9 73 22.8 70 70 SSW 3 6 30.07 1018 5 8 0.00 0.00
10:53 am 10:53 Hazy 88 31.1 70 21.1 55 55 VRB 6 9 30.05 1018 6 10 0.00 0.00
11:53 am 11:53 Partly Cloudy 91 32.8 69 20.6 49 49 VRB 5 7 30.04 1017 7 11 0.00 0.00
12:53 pm 12:53 Mostly Sunny 91 32.8 69 20.6 49 49 WSW 12 19 30.01 1016 7 11 0.00 0.00
1:53 pm 13:53 Mostly Sunny 92 33.3 69 20.6 47 47 WSW 8 13 29.99 1016 7 11 0.00 0.00
2:53 pm 14:53 Mostly Sunny 92 33.3 69 20.6 47 47 SSW 12 19 29.96 1015 8 13 0.00 0.00
3:53 pm 15:53 Partly Cloudy 92 33.3 68 20 46 46 SW 10 17 29.95 1014 8 13 0.00 0.00
4:53 pm 16:53 Partly Cloudy 93 33.9 67 19.4 43 43 W 12 19 29.93 1014 9 14 0.00 0.00
5:53 pm 17:53 Mostly Sunny 92 33.3 68 20 46 46 SW 13 20 29.91 1013 8 13 0.00 0.00
6:53 pm 18:53 Sunny 90 32.2 67 19.4 47 47 SW 9 15 29.90 1013 8 13 0.00 0.00
7:53 pm 19:53 Sunny 88 31.1 68 20 52 52 SSW 9 15 29.89 1012 8 13 0.00 0.00
8:53 pm 20:53 Sunny 82 27.8 69 20.6 65 65 S 7 11 29.88 1012 8 13 0.00 0.00
9:53 pm 21:53 Clear 78 25.6 69 20.6 74 74 S 7 11 29.86 1011 8 13 0.00 0.00
10:53 pm 22:53 Mostly Clear 78 25.6 69 20.6 74 74 SSW 7 11 29.87 1012 9 14 0.00 0.00
11:53 pm 23:53 Partly Cloudy 78 25.6 69 20.6 74 74 SSW 5 7 29.88 1012 8 13 0.00 0.00

Powered by Vaisala Xweather